User: anonymous   Login
Location: Plymouth
(43.7570°N, 71.6890°W)
Time: 21:04:20
(UTC-05:00)
Language:

COSMOS 2406 - Orbit

View from above orbital plane
View from above orbital plane
View from above satellite
View from above satellite

Ground track
Ground track

The orbit data is extracted from the following two-line orbital elements,

1 28352U 04021A   14325.47020472  .00000027  00000-0  40912-4 0  4453
2 28352 071.0058 284.2889 0011785 073.9168 065.3507 14.11381483538398
Epoch (UTC): 21 November 2014 11:17:05
Eccentricity: 0.0011785
inclination: 71.0058°
perigee height: 846 km
apogee height: 863 km
right ascension of ascending node: 284.2889°
argument of perigee: 73.9168°
revolutions per day: 14.11381483
mean anomaly at epoch: 65.3507°
orbit number at epoch: 53839

The dashed part of the orbit path shows where the satellite is in the earth's shadow,  

DLR